Simultaneous Nadir Overpasses (SNOs) Predictions

Prediction of SNOs near US between AQUA and NPP Satellite Orbit:

Table of predicted SNOs near US for the next 10.0 days since TLE Epoch: 9/3/2022
Index Date (AQUA) Time (AQUA) AQUA Lat,Lon Date (NPP) Time (NPP) NPP Lat,Lon Distance(km) Time Diff (sec)
1 09/05/2022 06:59:33 32.06, -74.64 09/05/2022 06:54:33 32.46, -76.69 197.88 300
2 09/05/2022 08:35:52 41.22, -96.64 09/05/2022 08:33:25 41.65, -99.17 216.32 147
3 09/05/2022 10:12:18 49.91,-118.14 09/05/2022 10:12:22 50.48,-121.04 216.15 4
4 09/07/2022 21:09:49 49.95,-122.26 09/07/2022 21:02:39 49.55,-124.62 175.59 430
